Location: Poprad
(49.0500°N, 20.3000°E)
Time: 07:32:03
(UTC+02:00)

Oscar 11 - Pass Details

Date: 26 April 2024
Orbit: 602 x 614 km, 97.7° (Epoch: 19 May)

Event Time Altitude Azimuth Distance (km) Brightness Sun altitude
Rises 03:55:11 0° 21° (NNE) 2,892 11.7 -13.6°
Reaches altitude 10° 03:57:35 10° 32° (NNE) 1,980 10.9 -13.3°
Maximum altitude 04:01:25 31° 95° (E) 1,077 8.8 -12.8°
Drops below altitude 10° 04:05:14 10° 159° (SSE) 1,958 9.5 -12.3°
Sets 04:07:35 0° 169° (S) 2,854 10.2 -12.0°
